Regional Weather Roundup
Issued by NWS Glasgow, MT

Home | Current Version | Previous Version | Text Only | Print | Product List | Glossary On
Versions: 1 2 3 4 5 6 7 8 9 10 11 12 13 14 15 16 17 18 19 20 21 22 23 24 25 26 27 28 29 30 31 32 33 34 35 36 37 38 39 40 41 42 43 44 45 46 47 48 49 50
000
ASUS45 KGGW 241015
RWRGGW
HOURLY REGIONAL WEATHER ROUNDUP FOR NORTHEAST MONTANA
NATIONAL WEATHER SERVICE GLASGOW MONTANA
400 AM MDT TUE APR 24 2018

NOTE: "FAIR" INDICATES FEW OR NO CLOUDS BELOW 12,000 FEET WITH NO
SIGNIFICANT WEATHER AND/OR OBSTRUCTIONS TO VISISBILITY.

NORTHEAST MONTANA


CITY           SKY/WX    TMP DP  RH WIND       PRES   REMARKS
GLASGOW        FAIR      35  24  64 CALM      30.44S
PLENTYWOOD       N/A     32  25  75 W3          N/A
WOLF POINT     FAIR      25  20  81 CALM      30.47R
JORDAN           N/A     32  29  88 CALM      30.45R
WINNETT          N/A     36  30  79 S3          N/A
SIDNEY         FAIR      33  24  69 W3        30.47R
GLENDIVE       FAIR      33  30  88 NW6       30.46R
MALTA            N/A     32  30  92 SW3         N/A

FORT PECK REPORTS


CITY           SKY/WX    TMP DP  RH WIND       PRES   REMARKS
FORT PECK        N/A     34  30  85 SE5         N/A
THE PINES        N/A     34  26  72 SW3         N/A

SOUTHEAST MONTANA


CITY           SKY/WX    TMP DP  RH WIND       PRES   REMARKS
BILLINGS       MOCLDY    34  33  96 SW10      30.48S
MILES CITY     FAIR      35  34  96 W8        30.47S
BAKER          CLOUDY    33  33 100 NW8       30.44S
LIVINGSTON     MOCLDY    28  25  88 CALM      30.48R

CENTRAL MONTANA


CITY           SKY/WX    TMP DP  RH WIND       PRES   REMARKS
HAVRE          FAIR      29  26  89 W6        30.45R
LEWISTOWN      FAIR      27  25  92 SE7       30.47R
GREAT FALLS    FAIR      33  26  75 S14       30.46S
CUT BANK       FAIR      32  21  64 W5        30.41S
HELENA         FAIR      30  26  85 N3        30.47F
BUTTE            N/A     24  20  84 SE8       30.46F
BOZEMAN        FAIR      28  26  92 SE3       30.49R

WESTERN MONTANA


CITY           SKY/WX    TMP DP  RH WIND       PRES   REMARKS
MISSOULA       FAIR      32  24  72 N5        30.47R
KALISPELL      NOT AVBL

NORTH DAKOTA


CITY           SKY/WX    TMP DP  RH WIND       PRES   REMARKS
WILLISTON      FAIR      27  23  85 CALM      30.45R
DICKINSON      MOCLDY    36  29  75 N8        30.38R
MINOT          PTCLDY    33  24  69 NW10      30.39R
BISMARCK       CLOUDY    40  35  83 N6        30.36S

SOUTHERN SASKATCHEWAN


CITY           SKY/WX    TMP DP  RH WIND       PRES   REMARKS
REGINA         CLEAR     28  23  80 SW2       30.41R
MOOSE JAW      CLEAR     32  25  74 SW9       30.42
ESTEVAN        CLEAR     25  21  86 W7        30.43R
SWIFT CURRENT  CLEAR     34  23  64 SW13      30.39S




USA.gov is the U.S. government's official web portal to all federal, state and local government web resources and services.